�������l�o���
Date,Time,MP-1(��Sv/h),MP-2(��Sv/h),MP-3(��Sv/h),MP-4(��Sv/h),MP-5(��Sv/h),MP-6(��Sv/h),MP-7(��Sv/h),MP-8(��Sv/h),����,����(m/s),���J
2022/09/18,00:00,0.593,0.865,0.544,1.060,0.760,0.342,0.600,0.563,��,7.1,��
2022/09/18,00:10,0.592,0.868,0.545,1.058,0.761,0.345,0.602,0.563,��,8.2,��
2022/09/18,00:20,0.594,0.866,0.545,1.059,0.761,0.342,0.599,0.564,��,8.7,��
2022/09/18,00:30,0.593,0.865,0.544,1.062,0.760,0.343,0.600,0.563,��,9.1,��
2022/09/18,00:40,0.594,0.866,0.546,1.060,0.761,0.343,0.600,0.565,��,7.0,��
2022/09/18,00:50,0.592,0.867,0.544,1.060,0.761,0.343,0.602,0.564,��,8.3,��
2022/09/18,01:00,0.594,0.867,0.544,1.059,0.760,0.342,0.602,0.564,��,7.1,��
2022/09/18,01:10,0.594,0.865,0.543,1.058,0.759,0.344,0.600,0.565,��,7.5,��
2022/09/18,01:20,0.592,0.867,0.546,1.058,0.762,0.343,0.602,0.564,��,7.9,��
2022/09/18,01:30,0.593,0.865,0.546,1.059,0.763,0.343,0.603,0.566,��,6.9,��
2022/09/18,01:40,0.593,0.864,0.545,1.060,0.760,0.344,0.600,0.565,��,7.5,��
2022/09/18,01:50,0.595,0.866,0.544,1.059,0.760,0.342,0.601,0.565,��,7.8,��
2022/09/18,02:00,0.596,0.865,0.545,1.059,0.761,0.344,0.601,0.565,��,7.5,��
2022/09/18,02:10,0.593,0.866,0.545,1.060,0.760,0.344,0.602,0.564,��,7.7,��
2022/09/18,02:20,0.593,0.864,0.545,1.058,0.761,0.343,0.600,0.565,��,7.5,��
2022/09/18,02:30,0.596,0.865,0.543,1.058,0.761,0.344,0.600,0.565,��,7.1,��
2022/09/18,02:40,0.595,0.864,0.547,1.060,0.760,0.343,0.602,0.563,��쐼,7.1,��
2022/09/18,02:50,0.593,0.865,0.544,1.060,0.762,0.342,0.602,0.564,��,5.8,��
2022/09/18,03:00,0.594,0.867,0.546,1.059,0.761,0.343,0.601,0.564,��,6.5,��
2022/09/18,03:10,0.593,0.865,0.545,1.059,0.761,0.344,0.602,0.564,��,7.5,��
2022/09/18,03:20,0.595,0.870,0.546,1.057,0.762,0.344,0.601,0.564,��,7.1,��
2022/09/18,03:30,0.595,0.865,0.545,1.061,0.760,0.343,0.602,0.565,��,6.8,��
2022/09/18,03:40,0.594,0.866,0.547,1.059,0.761,0.344,0.600,0.564,��,6.6,��
2022/09/18,03:50,0.594,0.866,0.545,1.057,0.762,0.344,0.602,0.564,��,6.7,��
2022/09/18,04:00,0.594,0.867,0.545,1.056,0.761,0.345,0.602,0.564,��,7.2,��
2022/09/18,04:10,0.594,0.868,0.545,1.060,0.761,0.344,0.602,0.564,��,6.9,��
2022/09/18,04:20,0.595,0.864,0.544,1.058,0.761,0.342,0.602,0.564,��,8.0,��
2022/09/18,04:30,0.594,0.865,0.544,1.058,0.761,0.343,0.602,0.562,��,7.3,��
2022/09/18,04:40,0.593,0.866,0.545,1.059,0.759,0.343,0.599,0.564,��,7.0,��
2022/09/18,04:50,0.594,0.867,0.545,1.056,0.759,0.344,0.602,0.564,��,5.6,��
2022/09/18,05:00,0.594,0.865,0.546,1.058,0.760,0.343,0.601,0.564,��,6.8,��
2022/09/18,05:10,0.595,0.867,0.545,1.057,0.760,0.344,0.600,0.563,��,6.5,��
2022/09/18,05:20,0.594,0.867,0.544,1.059,0.761,0.343,0.601,0.565,��,6.2,��
2022/09/18,05:30,0.595,0.867,0.544,1.057,0.758,0.344,0.600,0.562,��,6.3,��
2022/09/18,05:40,0.592,0.866,0.545,1.057,0.760,0.344,0.601,0.564,��,6.3,��
2022/09/18,05:50,0.593,0.865,0.544,1.059,0.759,0.344,0.601,0.564,��,6.6,��
2022/09/18,06:00,0.593,0.868,0.544,1.059,0.759,0.342,0.602,0.564,��,6.8,��
2022/09/18,06:10,0.593,0.865,0.545,1.059,0.760,0.344,0.602,0.564,��,6.1,��
2022/09/18,06:20,0.594,0.865,0.543,1.059,0.760,0.344,0.602,0.563,��,5.9,��
2022/09/18,06:30,0.595,0.864,0.545,1.058,0.760,0.344,0.601,0.564,��,6.4,��
2022/09/18,06:40,0.595,0.863,0.544,1.060,0.760,0.344,0.602,0.564,��,7.0,��
2022/09/18,06:50,0.595,0.865,0.545,1.059,0.762,0.343,0.601,0.564,��,5.9,��
2022/09/18,07:00,0.596,0.863,0.544,1.059,0.761,0.343,0.602,0.565,��,6.5,�L
2022/09/18,07:10,0.594,0.864,0.544,1.059,0.761,0.343,0.602,0.565,��,6.7,��
2022/09/18,07:20,0.594,0.865,0.542,1.057,0.760,0.342,0.602,0.565,��,6.9,��
2022/09/18,07:30,0.595,0.864,0.545,1.060,0.760,0.343,0.601,0.565,��,6.7,��
2022/09/18,07:40,0.595,0.863,0.544,1.060,0.759,0.343,0.603,0.565,��,5.7,��
2022/09/18,07:50,0.594,0.865,0.543,1.058,0.759,0.344,0.602,0.567,��,5.9,��
2022/09/18,08:00,0.594,0.865,0.544,1.060,0.758,0.343,0.602,0.566,��,5.4,��
2022/09/18,08:10,0.595,0.865,0.545,1.058,0.759,0.344,0.603,0.565,��,5.2,��
2022/09/18,08:20,0.594,0.866,0.544,1.059,0.759,0.343,0.603,0.565,��,5.7,��
2022/09/18,08:30,0.593,0.866,0.546,1.058,0.760,0.343,0.604,0.566,��,6.5,��
2022/09/18,08:40,0.595,0.867,0.546,1.059,0.761,0.343,0.604,0.563,��,6.9,�L
2022/09/18,08:50,0.597,0.866,0.545,1.057,0.760,0.342,0.602,0.564,��,5.7,�L
2022/09/18,09:00,0.596,0.866,0.545,1.058,0.760,0.343,0.604,0.564,��,7.0,�L
2022/09/18,09:10,0.596,0.867,0.545,1.058,0.761,0.344,0.603,0.564,��,7.0,�L
2022/09/18,09:20,0.595,0.867,0.544,1.059,0.760,0.343,0.605,0.562,��,7.3,�L
2022/09/18,09:30,0.596,0.864,0.546,1.059,0.761,0.343,0.602,0.564,��,8.7,�L
2022/09/18,09:40,0.597,0.865,0.546,1.058,0.759,0.343,0.604,0.562,��,8.6,�L
2022/09/18,09:50,0.595,0.866,0.546,1.060,0.758,0.344,0.602,0.564,��,7.3,�L
2022/09/18,10:00,0.595,0.865,0.545,1.059,0.758,0.344,0.602,0.564,��,7.5,��
2022/09/18,10:10,0.595,0.868,0.545,1.060,0.761,0.344,0.602,0.564,��,7.8,��
2022/09/18,10:20,0.595,0.868,0.546,1.060,0.762,0.344,0.603,0.566,��,7.6,��
2022/09/18,10:30,0.595,0.868,0.546,1.060,0.760,0.343,0.604,0.563,��쓌,7.2,��
2022/09/18,10:40,0.598,0.867,0.547,1.059,0.762,0.344,0.604,0.563,��,9.9,��
2022/09/18,10:50,0.597,0.865,0.546,1.061,0.763,0.345,0.604,0.563,��,10.2,��
2022/09/18,11:00,0.595,0.867,0.544,1.059,0.761,0.344,0.603,0.564,��쓌,11.3,��
2022/09/18,11:10,0.599,0.867,0.545,1.060,0.763,0.343,0.603,0.562,��쓌,11.4,��
2022/09/18,11:20,0.597,0.869,0.545,1.058,0.763,0.342,0.603,0.564,��,10.6,��
2022/09/18,11:30,0.596,0.868,0.547,1.058,0.763,0.343,0.605,0.563,��,11.6,��
2022/09/18,11:40,0.598,0.866,0.544,1.058,0.762,0.344,0.603,0.562,��,11.3,��
2022/09/18,11:50,0.598,0.866,0.546,1.059,0.760,0.344,0.601,0.562,��,11.1,��
2022/09/18,12:00,0.596,0.867,0.547,1.058,0.764,0.344,0.603,0.561,��,10.6,��
2022/09/18,12:10,0.596,0.867,0.547,1.062,0.760,0.344,0.604,0.562,��,10.7,��
2022/09/18,12:20,0.598,0.869,0.547,1.059,0.760,0.345,0.603,0.564,��,11.4,��
2022/09/18,12:30,0.598,0.866,0.545,1.060,0.763,0.344,0.604,0.563,��,11.3,��
2022/09/18,12:40,0.596,0.870,0.545,1.059,0.761,0.346,0.601,0.560,��쓌,12.2,��
2022/09/18,12:50,0.596,0.867,0.546,1.058,0.761,0.345,0.602,0.562,��쓌,10.0,��
2022/09/18,13:00,0.596,0.869,0.546,1.058,0.762,0.345,0.602,0.564,��,10.3,��
2022/09/18,13:10,0.596,0.868,0.545,1.060,0.761,0.344,0.603,0.563,��,10.6,��
2022/09/18,13:20,0.597,0.868,0.546,1.060,0.760,0.345,0.604,0.565,��쓌,8.4,��
2022/09/18,13:30,0.597,0.868,0.545,1.061,0.762,0.346,0.602,0.565,��쓌,9.5,��
2022/09/18,13:40,0.595,0.868,0.548,1.060,0.762,0.345,0.603,0.565,��쓌,10.3,��
2022/09/18,13:50,0.597,0.869,0.546,1.060,0.763,0.344,0.604,0.564,��,9.6,��
2022/09/18,14:00,0.597,0.868,0.545,1.059,0.760,0.345,0.604,0.565,��,10.4,��
2022/09/18,14:10,0.597,0.868,0.546,1.061,0.763,0.344,0.604,0.564,��쓌,10.6,��
2022/09/18,14:20,0.597,0.867,0.546,1.060,0.761,0.345,0.602,0.565,��,8.4,��
2022/09/18,14:30,0.596,0.869,0.546,1.062,0.762,0.345,0.604,0.566,��쓌,7.8,��
2022/09/18,14:40,0.596,0.866,0.546,1.061,0.762,0.345,0.603,0.566,��쓌,8.4,��
2022/09/18,14:50,0.596,0.867,0.546,1.060,0.762,0.345,0.603,0.565,��,8.4,��
2022/09/18,15:00,0.597,0.867,0.547,1.061,0.760,0.345,0.604,0.565,��,7.4,��
2022/09/18,15:10,0.598,0.869,0.545,1.061,0.761,0.346,0.603,0.564,��,8.5,��
2022/09/18,15:20,0.598,0.870,0.547,1.061,0.761,0.346,0.604,0.564,��,9.4,��
2022/09/18,15:30,0.596,0.867,0.545,1.061,0.764,0.344,0.604,0.564,��쓌,9.6,��
2022/09/18,15:40,0.597,0.867,0.546,1.060,0.761,0.345,0.602,0.565,��,11.3,��
2022/09/18,15:50,0.597,0.867,0.547,1.063,0.762,0.346,0.602,0.565,��,11.6,�L
2022/09/18,16:00,0.597,0.867,0.547,1.060,0.764,0.345,0.603,0.565,��,9.2,�L
2022/09/18,16:10,0.597,0.867,0.547,1.061,0.761,0.344,0.603,0.563,��,9.3,�L
2022/09/18,16:20,0.596,0.868,0.546,1.061,0.761,0.345,0.602,0.564,��,9.5,��
2022/09/18,16:30,0.595,0.866,0.547,1.062,0.763,0.346,0.601,0.564,��,9.0,�L
2022/09/18,16:40,0.595,0.870,0.546,1.061,0.763,0.345,0.603,0.564,��,8.7,�L
2022/09/18,16:50,0.598,0.867,0.546,1.062,0.762,0.344,0.603,0.565,��,9.4,��
2022/09/18,17:00,0.597,0.869,0.547,1.060,0.763,0.344,0.602,0.564,��,8.9,��
2022/09/18,17:10,0.596,0.870,0.547,1.060,0.763,0.344,0.602,0.565,��,9.2,�L
2022/09/18,17:20,0.598,0.870,0.547,1.062,0.762,0.345,0.604,0.565,��,9.0,��
2022/09/18,17:30,0.598,0.868,0.546,1.062,0.761,0.345,0.604,0.565,��,9.4,��
2022/09/18,17:40,0.597,0.869,0.547,1.062,0.761,0.344,0.603,0.565,��,7.9,�L
2022/09/18,17:50,0.596,0.868,0.546,1.062,0.761,0.345,0.605,0.564,��쓌,8.7,�L
2022/09/18,18:00,0.595,0.868,0.544,1.061,0.762,0.345,0.602,0.565,��쓌,8.5,�L
2022/09/18,18:10,0.595,0.869,0.545,1.062,0.761,0.343,0.603,0.565,��쓌,9.3,�L
2022/09/18,18:20,0.596,0.867,0.546,1.060,0.761,0.343,0.604,0.565,��,9.1,�L
2022/09/18,18:30,0.593,0.864,0.543,1.061,0.759,0.344,0.602,0.564,��,9.2,�L
2022/09/18,18:40,0.593,0.859,0.542,1.058,0.756,0.342,0.600,0.562,��,8.7,�L
2022/09/18,18:50,0.590,0.857,0.541,1.057,0.754,0.343,0.598,0.561,��,7.5,�L
2022/09/18,19:00,0.589,0.852,0.541,1.060,0.752,0.342,0.598,0.562,��,7.9,�L
2022/09/18,19:10,0.590,0.852,0.540,1.055,0.751,0.341,0.598,0.561,��,7.9,�L
2022/09/18,19:20,0.588,0.850,0.540,1.056,0.748,0.341,0.599,0.562,��,8.0,�L
2022/09/18,19:30,0.588,0.851,0.538,1.053,0.749,0.340,0.597,0.562,��쓌,8.5,�L
2022/09/18,19:40,0.587,0.849,0.536,1.053,0.745,0.342,0.596,0.560,��쓌,9.3,�L
2022/09/18,19:50,0.587,0.846,0.536,1.052,0.746,0.341,0.597,0.560,��,9.6,�L
2022/09/18,20:00,0.585,0.844,0.535,1.053,0.742,0.340,0.593,0.557,��,10.3,�L
2022/09/18,20:10,0.584,0.844,0.533,1.050,0.741,0.340,0.594,0.558,��,8.9,�L
2022/09/18,20:20,0.582,0.845,0.534,1.049,0.742,0.341,0.595,0.557,��,9.0,�L
2022/09/18,20:30,0.584,0.844,0.534,1.049,0.740,0.340,0.595,0.557,��쓌,9.6,�L
2022/09/18,20:40,0.583,0.841,0.533,1.048,0.741,0.339,0.595,0.556,��쓌,11.7,�L
2022/09/18,20:50,0.584,0.841,0.532,1.047,0.740,0.340,0.594,0.556,��쓌,11.8,�L
2022/09/18,21:00,0.583,0.841,0.532,1.048,0.738,0.338,0.595,0.557,��,11.1,�L
2022/09/18,21:10,0.583,0.841,0.534,1.046,0.738,0.340,0.595,0.557,��,9.0,�L
2022/09/18,21:20,0.584,0.841,0.531,1.046,0.739,0.340,0.592,0.555,��쓌,9.6,�L
2022/09/18,21:30,0.583,0.841,0.532,1.048,0.737,0.340,0.594,0.557,��,10.8,�L
2022/09/18,21:40,0.581,0.842,0.534,1.047,0.739,0.339,0.594,0.557,��,9.8,�L
2022/09/18,21:50,0.583,0.842,0.532,1.047,0.738,0.339,0.595,0.557,��,10.6,�L
2022/09/18,22:00,0.582,0.842,0.533,1.047,0.738,0.341,0.593,0.557,��,10.7,�L
2022/09/18,22:10,0.582,0.841,0.533,1.046,0.739,0.341,0.595,0.558,��,9.0,�L
2022/09/18,22:20,0.582,0.841,0.532,1.046,0.739,0.339,0.594,0.556,��,9.0,�L
2022/09/18,22:30,0.583,0.841,0.535,1.047,0.739,0.341,0.594,0.557,��,8.9,�L
2022/09/18,22:40,0.584,0.842,0.534,1.047,0.738,0.340,0.595,0.558,��,8.0,��
2022/09/18,22:50,0.580,0.843,0.533,1.048,0.739,0.340,0.595,0.558,��,8.7,�L
2022/09/18,23:00,0.583,0.844,0.533,1.047,0.742,0.341,0.594,0.558,��,9.0,�L
2022/09/18,23:10,0.582,0.843,0.535,1.048,0.740,0.340,0.595,0.557,��,8.5,�L
2022/09/18,23:20,0.584,0.843,0.535,1.046,0.740,0.340,0.593,0.558,��,8.1,�L
2022/09/18,23:30,0.581,0.843,0.534,1.048,0.741,0.341,0.595,0.557,��,8.8,�L
2022/09/18,23:40,0.584,0.842,0.535,1.049,0.743,0.340,0.594,0.557,��,9.4,�L
2022/09/18,23:50,0.584,0.845,0.536,1.049,0.742,0.340,0.595,0.559,��,10.2,�L
